QTR633 OPIS-OTHH

Flight info

Callsign QTR633
Flight time N/A
Altitude 38000
Route KALMI J139 HANGU G325 PG T385 TAPDO A454 VUSET N571 MENSA DCT EGTAG Q576 RORON/N0499F340 M430 TOSNA
Aircraft B77W/H-SDE1E2E3FGHIJ2J3J4J5M1RWXY/LB1D1

Departure

Time 2026-04-22 06:10
Airport Islamabad International Airport (OPIS)

Arrival

Time N/A
Airport Hamad International Airport (OTHH)
Time Latitude Longitude Altitude Speed Heading
2026-04-22 05:52 33.55431 72.83444 1777 ft 0 kts 10°
2026-04-22 06:01 33.55430 72.83444 1775 ft 1 kts 10°
2026-04-22 06:01 33.55416 72.83441 1776 ft 3 kts 10°
2026-04-22 06:01 33.55396 72.83436 1776 ft 3 kts 10°
2026-04-22 06:01 33.55377 72.83432 1773 ft 2 kts 10°
2026-04-22 06:02 33.55363 72.83429 1776 ft 3 kts 24°
2026-04-22 06:02 33.55350 72.83417 1773 ft 3 kts 75°
2026-04-22 06:02 33.55349 72.83395 1773 ft 3 kts 101°
2026-04-22 06:02 33.55352 72.83377 1772 ft 1 kts 101°
2026-04-22 06:03 33.55352 72.83376 1772 ft 0 kts 100°
2026-04-22 06:06 33.55351 72.83392 1772 ft 9 kts 99°
2026-04-22 06:06 33.55330 72.83513 1775 ft 14 kts 112°
2026-04-22 06:06 33.55243 72.83537 1776 ft 14 kts 191°
2026-04-22 06:07 33.55147 72.83515 1775 ft 14 kts 189°
2026-04-22 06:07 33.55062 72.83521 1777 ft 12 kts 135°
2026-04-22 06:07 33.55038 72.83619 1777 ft 13 kts 102°
2026-04-22 06:07 33.55021 72.83722 1777 ft 13 kts 101°
2026-04-22 06:08 33.54991 72.83919 1775 ft 33 kts 101°
2026-04-22 06:08 33.54959 72.84123 1774 ft 17 kts 100°
2026-04-22 06:08 33.54938 72.84263 1775 ft 17 kts 100°
2026-04-22 06:08 33.54914 72.84404 1775 ft 17 kts 108°
2026-04-22 06:09 33.54827 72.84435 1775 ft 11 kts 191°
2026-04-22 06:09 33.54741 72.84407 1769 ft 14 kts 214°
2026-04-22 06:09 33.54733 72.84291 1770 ft 20 kts 280°
2026-04-22 06:09 33.54799 72.83863 1771 ft 97 kts 281°
2026-04-22 06:10 33.54986 72.82718 1772 ft 178 kts 280°
2026-04-22 06:10 33.55242 72.81180 2474 ft 188 kts 282°
2026-04-22 06:10 33.55476 72.79596 3354 ft 199 kts 281°
2026-04-22 06:10 33.55717 72.77915 3972 ft 214 kts 281°
2026-04-22 06:11 33.56012 72.76037 4243 ft 247 kts 282°
2026-04-22 06:11 33.56312 72.73938 4720 ft 262 kts 274°
2026-04-22 06:11 33.55915 72.71796 5523 ft 269 kts 240°
2026-04-22 06:11 33.54724 72.70053 6380 ft 272 kts 232°
2026-04-22 06:12 33.53936 72.68017 7046 ft 275 kts 265°
2026-04-22 06:12 33.54012 72.65707 7760 ft 281 kts 276°
2026-04-22 06:12 33.54205 72.63371 8706 ft 282 kts 275°
2026-04-22 06:12 33.54340 72.61131 9479 ft 281 kts 273°
2026-04-22 06:13 33.54430 72.59017 9915 ft 288 kts 272°
2026-04-22 06:13 33.54504 72.56607 9961 ft 291 kts 271°
2026-04-22 06:13 33.54557 72.54182 9968 ft 291 kts 271°
2026-04-22 06:13 33.54599 72.51759 9965 ft 289 kts 270°
2026-04-22 06:14 33.54633 72.49368 9962 ft 286 kts 270°
2026-04-22 06:14 33.54661 72.46978 9956 ft 287 kts 270°
2026-04-22 06:14 33.54689 72.44582 9947 ft 287 kts 270°
2026-04-22 06:14 33.54718 72.42189 9957 ft 288 kts 270°
2026-04-22 06:15 33.54735 72.39789 9962 ft 289 kts 270°
2026-04-22 06:15 33.54744 72.37364 9955 ft 291 kts 270°
2026-04-22 06:15 33.54749 72.34943 9959 ft 291 kts 270°
2026-04-22 06:15 33.54753 72.32515 9957 ft 291 kts 270°
2026-04-22 06:16 33.54759 72.30093 9958 ft 290 kts 269°
2026-04-22 06:16 33.54764 72.27712 9951 ft 289 kts 269°
2026-04-22 06:16 33.54769 72.25310 9949 ft 288 kts 269°
2026-04-22 06:16 33.54775 72.22907 9952 ft 287 kts 269°
2026-04-22 06:17 33.54779 72.20510 9956 ft 287 kts 269°
2026-04-22 06:17 33.54783 72.18109 9956 ft 288 kts 269°
2026-04-22 06:17 33.54787 72.15708 9956 ft 288 kts 269°
2026-04-22 06:17 33.54791 72.13295 9956 ft 289 kts 269°
2026-04-22 06:18 33.54794 72.10879 9959 ft 290 kts 269°
2026-04-22 06:18 33.54796 72.08487 9958 ft 291 kts 269°
2026-04-22 06:18 33.54798 72.06061 9958 ft 292 kts 269°
2026-04-22 06:18 33.54800 72.03625 9958 ft 292 kts 269°
2026-04-22 06:19 33.54760 72.01194 9945 ft 292 kts 266°
2026-04-22 06:19 33.54626 71.98873 9956 ft 291 kts 265°
2026-04-22 06:19 33.54465 71.96453 9952 ft 291 kts 265°
2026-04-22 06:19 33.54308 71.94033 9951 ft 291 kts 265°
2026-04-22 06:20 33.54159 71.91616 9954 ft 291 kts 265°
2026-04-22 06:20 33.54014 71.89202 9953 ft 290 kts 265°
2026-04-22 06:20 33.53870 71.86790 9951 ft 290 kts 265°
2026-04-22 06:20 33.53728 71.84383 9952 ft 289 kts 265°
2026-04-22 06:21 33.53589 71.81979 9954 ft 289 kts 265°
2026-04-22 06:21 33.53451 71.79578 9960 ft 289 kts 265°
2026-04-22 06:21 33.53312 71.77181 9961 ft 289 kts 265°
2026-04-22 06:21 33.53172 71.74774 9964 ft 289 kts 265°
2026-04-22 06:22 33.53032 71.72364 9952 ft 290 kts 265°
2026-04-22 06:22 33.52890 71.69952 9955 ft 290 kts 265°
2026-04-22 06:22 33.52749 71.67544 9959 ft 289 kts 265°
2026-04-22 06:22 33.52609 71.65167 9960 ft 289 kts 265°
2026-04-22 06:23 33.52466 71.62760 9959 ft 290 kts 265°
2026-04-22 06:23 33.52323 71.60342 9947 ft 290 kts 265°
2026-04-22 06:23 33.52180 71.57934 9962 ft 290 kts 265°
2026-04-22 06:23 33.52036 71.55524 9965 ft 290 kts 265°
2026-04-22 06:24 33.51749 71.50707 9961 ft 289 kts 265°
2026-04-22 06:24 33.51604 71.48309 9965 ft 289 kts 265°
2026-04-22 06:24 33.51457 71.45902 9964 ft 289 kts 265°
2026-04-22 06:25 33.51309 71.43495 9972 ft 292 kts 265°
2026-04-22 06:25 33.51154 71.40991 10158 ft 314 kts 265°
2026-04-22 06:25 33.50984 71.38259 10345 ft 343 kts 265°
2026-04-22 06:25 33.50800 71.35299 10644 ft 367 kts 265°
2026-04-22 06:26 33.50607 71.32211 11392 ft 376 kts 265°
2026-04-22 06:26 33.50412 71.29057 12325 ft 381 kts 265°
2026-04-22 06:26 33.50215 71.25912 13317 ft 386 kts 265°
2026-04-22 06:26 33.50011 71.22684 14210 ft 391 kts 265°
2026-04-22 06:27 33.49804 71.19426 15116 ft 394 kts 265°
2026-04-22 06:27 33.49598 71.16134 16024 ft 398 kts 265°
2026-04-22 06:27 33.49387 71.12815 16936 ft 401 kts 265°
2026-04-22 06:27 33.49172 71.09466 17819 ft 405 kts 265°
2026-04-22 06:28 33.48951 71.06083 18605 ft 408 kts 264°
2026-04-22 06:28 33.48312 71.02766 19092 ft 414 kts 246°
2026-04-22 06:28 33.46828 70.99890 19722 ft 421 kts 231°
2026-04-22 06:28 33.44733 70.97518 20436 ft 425 kts 216°
2026-04-22 06:29 33.42240 70.95587 21026 ft 431 kts 213°
2026-04-22 06:29 33.39658 70.93708 21659 ft 437 kts 212°
2026-04-22 06:29 33.37036 70.91824 22358 ft 441 kts 212°
2026-04-22 06:29 33.34392 70.89913 23060 ft 446 kts 212°
2026-04-22 06:30 33.31730 70.87967 23632 ft 451 kts 212°
2026-04-22 06:30 33.29085 70.86015 24169 ft 455 kts 213°
2026-04-22 06:30 33.26391 70.84015 24745 ft 458 kts 213°
2026-04-22 06:30 33.23642 70.81968 25338 ft 461 kts 213°
2026-04-22 06:31 33.20945 70.79959 25873 ft 465 kts 213°
2026-04-22 06:31 33.18153 70.77878 26363 ft 470 kts 213°
2026-04-22 06:31 33.15401 70.75831 26860 ft 473 kts 213°
2026-04-22 06:31 33.12588 70.73739 27395 ft 477 kts 213°
2026-04-22 06:32 33.09761 70.71641 27904 ft 480 kts 213°
2026-04-22 06:32 33.06915 70.69531 28380 ft 483 kts 213°
2026-04-22 06:32 33.04049 70.67406 28838 ft 486 kts 213°
2026-04-22 06:32 33.01164 70.65270 29269 ft 489 kts 213°
2026-04-22 06:33 32.98263 70.63123 29664 ft 493 kts 213°
2026-04-22 06:33 32.95344 70.60964 30046 ft 495 kts 213°
2026-04-22 06:33 32.92417 70.58796 30474 ft 495 kts 213°
2026-04-22 06:33 32.89520 70.56608 30959 ft 493 kts 214°
2026-04-22 06:34 32.86636 70.54401 31467 ft 491 kts 214°
2026-04-22 06:34 32.83769 70.52201 31945 ft 489 kts 214°
2026-04-22 06:34 32.80908 70.50009 32416 ft 488 kts 214°
2026-04-22 06:34 32.78055 70.47830 32854 ft 488 kts 214°
2026-04-22 06:35 32.75234 70.45682 33304 ft 487 kts 214°
2026-04-22 06:35 32.72385 70.43517 33756 ft 485 kts 214°
2026-04-22 06:35 32.69541 70.41357 34155 ft 484 kts 214°
2026-04-22 06:35 32.66711 70.39209 34569 ft 482 kts 214°
2026-04-22 06:36 32.63888 70.37069 34967 ft 480 kts 214°
2026-04-22 06:36 32.61047 70.34981 35314 ft 480 kts 213°
2026-04-22 06:36 32.58173 70.32973 35685 ft 479 kts 212°
2026-04-22 06:36 32.55286 70.30991 35858 ft 482 kts 212°
2026-04-22 06:37 32.52375 70.28993 35840 ft 483 kts 212°
2026-04-22 06:37 32.46595 70.24989 35822 ft 477 kts 212°
2026-04-22 06:38 32.40888 70.21008 35831 ft 476 kts 213°
2026-04-22 06:38 32.35190 70.17029 35845 ft 474 kts 213°
2026-04-22 06:39 32.29592 70.13001 35833 ft 474 kts 213°
2026-04-22 06:39 32.23980 70.08931 35829 ft 473 kts 213°
2026-04-22 06:40 32.18355 70.04871 35843 ft 473 kts 213°
2026-04-22 06:40 32.12725 70.00824 35845 ft 474 kts 213°
2026-04-22 06:41 32.07255 69.96901 35838 ft 475 kts 213°
2026-04-22 06:41 32.01630 69.92872 35848 ft 476 kts 213°
2026-04-22 06:42 31.95985 69.88835 35850 ft 476 kts 213°
2026-04-22 06:42 31.90318 69.84787 35860 ft 476 kts 213°
2026-04-22 06:43 31.84638 69.80737 35848 ft 477 kts 213°
2026-04-22 06:43 31.78960 69.76693 35866 ft 477 kts 213°
2026-04-22 06:44 31.73288 69.72659 35861 ft 476 kts 213°
2026-04-22 06:44 31.67622 69.68635 35880 ft 475 kts 213°
2026-04-22 06:45 31.61964 69.64624 35869 ft 475 kts 213°
2026-04-22 06:45 31.56341 69.60642 35872 ft 474 kts 213°
2026-04-22 06:46 31.50690 69.56646 35877 ft 474 kts 213°
2026-04-22 06:46 31.45040 69.52654 35875 ft 474 kts 213°
2026-04-22 06:47 31.39404 69.48678 35879 ft 472 kts 213°
2026-04-22 06:47 31.35016 69.44919 35888 ft 469 kts 222°
2026-04-22 06:48 31.30425 69.39540 35885 ft 467 kts 229°
2026-04-22 06:48 31.26064 69.33910 35884 ft 467 kts 229°
2026-04-22 06:49 31.21694 69.28292 35885 ft 467 kts 229°
2026-04-22 06:49 31.17303 69.22691 35892 ft 467 kts 229°
2026-04-22 06:50 31.12924 69.17132 35891 ft 468 kts 228°
2026-04-22 06:50 31.08509 69.11538 35892 ft 469 kts 228°
2026-04-22 06:51 31.04079 69.05931 35901 ft 470 kts 228°
2026-04-22 06:51 31.01857 69.03122 36134 ft 471 kts 228°
2026-04-22 06:51 30.99659 69.00345 36567 ft 468 kts 229°
2026-04-22 06:51 30.97588 68.97730 37037 ft 463 kts 229°
2026-04-22 06:52 30.95411 68.94985 37502 ft 459 kts 229°
2026-04-22 06:52 30.93245 68.92254 37827 ft 458 kts 229°
2026-04-22 06:52 30.91074 68.89519 37864 ft 461 kts 229°
2026-04-22 06:53 30.86721 68.84038 37886 ft 459 kts 229°
2026-04-22 06:53 30.82402 68.78611 37886 ft 454 kts 229°
2026-04-22 06:54 30.78113 68.73228 37887 ft 453 kts 229°
2026-04-22 06:54 30.73822 68.67850 37892 ft 454 kts 229°
2026-04-22 06:55 30.69532 68.62480 37889 ft 457 kts 229°
2026-04-22 06:55 30.65197 68.57062 37894 ft 459 kts 229°
2026-04-22 06:56 30.60835 68.51619 37890 ft 461 kts 229°
2026-04-22 06:56 30.56459 68.46165 37896 ft 462 kts 229°
2026-04-22 06:57 30.52077 68.40712 37906 ft 462 kts 229°
2026-04-22 06:57 30.47695 68.35267 37890 ft 461 kts 229°
2026-04-22 06:58 30.43345 68.29869 37917 ft 461 kts 229°
2026-04-22 06:58 30.38975 68.24453 37917 ft 460 kts 229°
2026-04-22 06:59 30.34605 68.19044 37933 ft 460 kts 229°
2026-04-22 06:59 30.30225 68.13630 37928 ft 459 kts 229°
2026-04-22 07:00 30.25862 68.08248 37906 ft 458 kts 229°
2026-04-22 07:00 30.21475 68.02896 37908 ft 458 kts 229°
2026-04-22 07:01 30.17224 67.97727 37918 ft 458 kts 229°
2026-04-22 07:01 30.12834 67.92384 37852 ft 458 kts 229°
2026-04-22 07:02 30.08463 67.87070 37870 ft 459 kts 229°
2026-04-22 07:02 30.04098 67.81681 37864 ft 459 kts 229°
2026-04-22 07:03 29.99760 67.76290 37822 ft 460 kts 229°
2026-04-22 07:03 29.95396 67.70884 37823 ft 460 kts 229°
2026-04-22 07:04 29.91030 67.65490 37817 ft 460 kts 229°
2026-04-22 07:04 29.86653 67.60092 37804 ft 460 kts 229°
2026-04-22 07:05 29.82283 67.54709 37801 ft 460 kts 229°
2026-04-22 07:05 29.77943 67.49369 37816 ft 459 kts 229°
2026-04-22 07:06 29.73568 67.43994 37810 ft 459 kts 229°
2026-04-22 07:06 29.69203 67.38625 37835 ft 459 kts 229°
2026-04-22 07:07 29.64844 67.33260 37833 ft 459 kts 229°
2026-04-22 07:07 29.60514 67.27937 37867 ft 459 kts 229°
2026-04-22 07:08 29.56156 67.22588 37867 ft 458 kts 229°
2026-04-22 07:08 29.51801 67.17250 37857 ft 458 kts 229°
2026-04-22 07:09 29.47434 67.11906 37901 ft 458 kts 229°
2026-04-22 07:09 29.43063 67.06563 37911 ft 459 kts 229°
2026-04-22 07:10 29.38682 67.01215 37928 ft 460 kts 229°
2026-04-22 07:10 29.34404 66.95999 37922 ft 460 kts 229°
2026-04-22 07:11 29.30012 66.90652 37932 ft 460 kts 229°
2026-04-22 07:11 29.25616 66.85308 37943 ft 461 kts 228°
2026-04-22 07:12 29.21215 66.79964 37942 ft 461 kts 228°
2026-04-22 07:12 29.16817 66.74632 37954 ft 460 kts 228°
2026-04-22 07:13 29.12448 66.69340 37952 ft 460 kts 228°
2026-04-22 07:13 29.08053 66.64023 37951 ft 459 kts 228°
2026-04-22 07:14 29.03661 66.58717 37955 ft 459 kts 228°
2026-04-22 07:14 28.99286 66.53433 37956 ft 457 kts 227°
2026-04-22 07:15 28.94934 66.48173 37945 ft 454 kts 227°
2026-04-22 07:15 28.90599 66.42938 37945 ft 452 kts 227°
2026-04-22 07:16 28.86284 66.37735 37944 ft 451 kts 227°
2026-04-22 07:16 28.81974 66.32544 37942 ft 450 kts 227°
2026-04-22 07:17 28.77691 66.27393 37931 ft 450 kts 228°
2026-04-22 07:17 28.73375 66.22209 37940 ft 451 kts 228°
2026-04-22 07:18 28.69036 66.17003 37936 ft 453 kts 228°
2026-04-22 07:18 28.64679 66.11784 37920 ft 455 kts 227°
2026-04-22 07:19 28.60315 66.06562 37927 ft 456 kts 227°
2026-04-22 07:19 28.55938 66.01333 37926 ft 456 kts 227°
2026-04-22 07:20 28.51681 65.96252 37889 ft 456 kts 227°
2026-04-22 07:20 28.47296 65.91025 37914 ft 456 kts 227°
2026-04-22 07:21 28.42927 65.85826 37862 ft 453 kts 227°
2026-04-22 07:21 28.38579 65.80657 37872 ft 450 kts 227°
2026-04-22 07:22 28.34261 65.75530 37867 ft 448 kts 227°
2026-04-22 07:22 28.29989 65.70463 37859 ft 446 kts 227°
2026-04-22 07:23 28.25702 65.65385 37855 ft 445 kts 227°
2026-04-22 07:23 28.21419 65.60318 37861 ft 445 kts 227°
2026-04-22 07:24 28.17129 65.55248 37851 ft 445 kts 227°
2026-04-22 07:24 28.12829 65.50172 37848 ft 446 kts 227°
2026-04-22 07:25 28.08528 65.45102 37834 ft 447 kts 227°
2026-04-22 07:25 28.04214 65.40023 37851 ft 447 kts 227°
2026-04-22 07:26 27.99933 65.34989 37837 ft 448 kts 227°
2026-04-22 07:26 27.95602 65.29899 37838 ft 449 kts 227°
2026-04-22 07:27 27.91259 65.24800 37847 ft 450 kts 227°
2026-04-22 07:27 27.90526 65.23941 37848 ft 450 kts 227°
2026-04-22 07:28 27.80855 65.12612 37835 ft 450 kts 227°
2026-04-22 07:28 27.76511 65.07533 37840 ft 450 kts 227°
2026-04-22 07:29 27.72161 65.02453 37838 ft 449 kts 227°
2026-04-22 07:29 27.67904 64.97489 37835 ft 449 kts 227°
2026-04-22 07:30 27.63550 64.92417 37846 ft 450 kts 227°
2026-04-22 07:30 27.59194 64.87349 37852 ft 450 kts 227°
2026-04-22 07:31 27.54831 64.82278 37852 ft 450 kts 227°
2026-04-22 07:31 27.50498 64.77250 37859 ft 451 kts 227°
2026-04-22 07:32 27.46128 64.72184 37856 ft 451 kts 227°
2026-04-22 07:32 27.41756 64.67122 37856 ft 451 kts 227°
2026-04-22 07:33 27.37379 64.62061 37859 ft 451 kts 227°
2026-04-22 07:33 27.33003 64.57006 37868 ft 451 kts 227°
2026-04-22 07:34 27.28614 64.51942 37864 ft 452 kts 227°
2026-04-22 07:34 27.24228 64.46888 37873 ft 452 kts 227°
2026-04-22 07:35 27.19835 64.41833 37867 ft 452 kts 227°
2026-04-22 07:35 27.15443 64.36784 37868 ft 452 kts 227°
2026-04-22 07:36 27.11041 64.31729 37866 ft 452 kts 226°
2026-04-22 07:36 27.06636 64.26678 37876 ft 453 kts 226°
2026-04-22 07:37 27.02246 64.21648 37856 ft 454 kts 227°
2026-04-22 07:37 26.97835 64.16599 37866 ft 454 kts 226°
2026-04-22 07:38 26.93401 64.11542 37877 ft 455 kts 226°
2026-04-22 07:38 26.88944 64.06509 37868 ft 455 kts 226°
2026-04-22 07:39 26.84475 64.01474 37863 ft 457 kts 226°
2026-04-22 07:39 26.80084 63.96527 37874 ft 458 kts 226°
2026-04-22 07:40 26.75610 63.91487 37866 ft 460 kts 226°
2026-04-22 07:40 26.71087 63.86399 37859 ft 461 kts 226°
2026-04-22 07:41 26.66559 63.81311 37848 ft 462 kts 226°
2026-04-22 07:41 26.62025 63.76222 37856 ft 462 kts 226°
2026-04-22 07:42 26.57481 63.71126 37851 ft 463 kts 226°
2026-04-22 07:42 26.52924 63.66025 37852 ft 464 kts 226°
2026-04-22 07:43 26.48360 63.60921 37878 ft 465 kts 226°
2026-04-22 07:43 26.43804 63.55833 37855 ft 466 kts 226°
2026-04-22 07:44 26.39218 63.50716 37857 ft 466 kts 226°
2026-04-22 07:44 26.34627 63.45599 37857 ft 466 kts 226°
2026-04-22 07:45 26.30040 63.40495 37868 ft 466 kts 226°
2026-04-22 07:45 26.25443 63.35384 37847 ft 467 kts 226°
2026-04-22 07:46 26.20842 63.30275 37846 ft 467 kts 226°
2026-04-22 07:46 26.16267 63.25200 37843 ft 467 kts 226°
2026-04-22 07:47 26.11657 63.20092 37845 ft 468 kts 226°
2026-04-22 07:47 26.07045 63.14988 37849 ft 468 kts 226°
2026-04-22 07:48 26.02428 63.09883 37861 ft 468 kts 226°
2026-04-22 07:48 25.97829 63.04804 37845 ft 468 kts 227°
2026-04-22 07:49 25.93306 62.99799 37845 ft 469 kts 227°
2026-04-22 07:49 25.88684 62.94685 37848 ft 469 kts 227°
2026-04-22 07:50 25.84049 62.89563 37846 ft 470 kts 227°
2026-04-22 07:50 25.79409 62.84443 37847 ft 471 kts 227°
2026-04-22 07:51 25.74757 62.79316 37844 ft 471 kts 227°
2026-04-22 07:51 25.70095 62.74185 37848 ft 471 kts 227°
2026-04-22 07:52 25.65466 62.69094 37847 ft 472 kts 227°
2026-04-22 07:52 25.60807 62.63977 37850 ft 472 kts 227°
2026-04-22 07:53 25.56134 62.58852 37846 ft 472 kts 227°
2026-04-22 07:53 25.51471 62.53742 37857 ft 472 kts 227°
2026-04-22 07:54 25.46823 62.48656 37851 ft 472 kts 227°
2026-04-22 07:54 25.42149 62.43545 37863 ft 472 kts 227°
2026-04-22 07:55 25.37468 62.38434 37856 ft 473 kts 227°
2026-04-22 07:55 25.32779 62.33319 37855 ft 473 kts 227°
2026-04-22 07:56 25.28095 62.28217 37857 ft 473 kts 227°
2026-04-22 07:56 25.23399 62.23107 37856 ft 473 kts 227°
2026-04-22 07:57 25.18708 62.18008 37853 ft 473 kts 227°
2026-04-22 07:57 25.14033 62.12932 37860 ft 474 kts 227°
2026-04-22 07:58 25.10885 62.09517 37859 ft 474 kts 227°